Theta_e
322 322 321 320 319 318 317 316 316 315 315 314 314 313 312 310 308 307 307 306 306 306 306 306 306 306 307 307 308 309 309 308 308 309 308 308 308 307 307 306 306 307
320 319 318 317 315 315 314 314 314 313 312 311 310 308 307 306 306 306 306 306 306 305 305 305 305 304 304 304 304 304 304 304 304 305 304 304 304 303 303 302 302 303
316 316 315 314 313 312 311 311 310 309 308 307 306 305 305 305 305 305 304 304 304 303 303 302 302 302 302 301 301 301 301 301 301 301 301 301 301 300 300 299 299 299
314 313 313 312 310 309 308 308 307 306 306 305 305 305 305 304 303 303 302 302 301 301 300 300 300 299 299 299 299 299 299 299 299 299 298 298 298 297 297 297 296 296
312 311 309 308 307 306 306 306 305 305 305 304 304 303 303 302 301 300 300 299 298 298 298 297 297 297 297 297 297 297 297 297 296 296 295 295 295 295 295 296 295 295
308 307 306 305 305 305 305 305 304 304 303 303 302 301 300 299 298 297 297 296 296 295 295 295 295 295 295 295 295 295 294 294 294 294 294 294 294 294 294 295 295 295
305 304 304 305 305 305 304 303 303 301 300 300 298 297 297 296 295 295 295 294 294 294 294 294 294 293 293 293 293 293 293 292 292 292 293 293 293 293 293 294 294 294
304 304 304 304 303 302 301 300 299 298 297 296 296 295 295 294 294 294 294 294 293 293 293 293 293 292 292 292 292 292 292 292 292 292 292 292 292 292 292 292 293 293
304 304 303 302 300 299 298 297 296 295 295 295 294 294 294 294 294 293 293 293 293 292 292 292 292 291 291 291 291 291 291 291 291 291 291 291 291 291 291 291 291 292
302 301 300 298 297 296 295 295 294 294 294 294 294 293 293 293 293 292 292 292 292 292 292 291 291 291 290 290 290 290 290 290 290 290 290 290 290 290 290 290 290 290
299 298 297 296 295 294 294 294 294 294 293 293 293 293 292 292 292 292 291 291 291 291 291 290 290 290 290 290 290 290 290 290 290 290 290 289 289 289 289 289 289 290
297 296 295 294 294 294 293 293 293 293 293 293 292 292 292 291 291 291 290 290 290 290 290 290 290 290 290 290 289 289 289 289 289 289 289 289 289 289 289 289 289 289
294 294 294 293 293 293 293 293 293 292 292 292 291 291 291 291 290 290 290 290 290 290 290 290 290 289 289 289 289 289 289 289 289 289 289 289 289 289 289 289 289 289
293 293 293 293 293 292 292 292 292 292 291 291 291 290 290 290 290 290 290 290 290 290 289 289 289 289 289 289 289 289 288 288 288 288 288 288 288 288 288 288 288 288
293 292 292 292 292 292 292 291 291 290 290 290 290 290 290 290 290 289 290 290 289 290 289 289 289 289 289 288 288 288 288 288 288 288 288 288 288 288 288 288 288 288
292 292 292 291 291 291 291 290 290 290 290 290 290 290 290 290 289 289 289 289 289 289 289 289 289 288 288 288 288 288 287 287 287 287 287 287 287 288 287 287 287 287
292 291 291 291 291 290 290 290 290 290 290 290 290 289 289 289 289 289 289 289 289 289 289 289 288 288 288 288 287 287 287 287 287 287 287 287 287 287 287 287 287 287
291 291 290 290 290 290 290 290 290 290 290 289 289 289 289 289 289 289 288 288 288 288 288 288 288 288 287 287 287 287 286 286 286 286 286 286 286 287 286 287 287 287
290 290 290 290 290 290 290 290 289 289 289 289 289 288 288 288 288 288 288 288 287 287 287 287 287 287 287 287 287 286 286 286 286 286 286 286 286 286 286 286 286 286
289 289 289 289 290 289 289 289 289 289 288 288 288 288 288 288 288 288 287 287 287 287 287 287 287 287 287 287 287 286 286 286 286 286 286 286 286 286 285 286 285 286
289 289 289 289 289 289 289 289 288 288 288 288 288 288 287 287 287 287 287 287 287 287 287 287 287 287 287 286 286 286 286 285 285 285 285 285 285 285 285 285 285 285
289 289 289 289 289 289 288 288 288 288 288 287 287 287 287 287 287 287 287 287 287 287 287 287 287 287 287 286 285 285 285 285 284 284 284 284 285 284 284 284 284 285
289 289 289 289 288 288 288 288 288 287 287 287 287 287 287 287 287 287 287 287 287 287 287 287 287 286 286 286 285 284 284 284 284 284 284 284 284 284 284 284 284 284
289 289 288 288 288 288 288 287 287 287 287 286 286 286 286 286 286 287 287 287 287 286 286 286 286 286 285 285 285 283 283 283 283 283 283 283 283 283 283 283 284 284
288 288 288 288 288 287 287 287 286 286 286 286 286 286 286 286 286 286 286 286 286 286 286 286 286 285 284 284 284 283 282 282 282 282 282 282 282 283 283 283 284 284
288 288 287 287 287 287 286 286 286 286 286 286 285 285 285 286 286 286 286 286 286 286 286 285 285 285 283 282 282 281 281 281 281 282 282 282 282 283 283 283 283 283
Wind_Speed
16 15 14 12 11 10 10 9 8 7 7 6 5 4 2 1 1 2 4 5 6 6 6 6 6 6 6 6 6 7 7 8 8 9 10 11 11 12 13 14 13 14
16 15 14 13 11 11 10 9 9 9 8 7 5 5 5 6 7 9 10 10 10 11 11 11 11 11 11 10 10 9 8 8 8 9 10 10 11 12 13 13 14 14
16 16 15 14 13 12 11 11 10 9 8 8 8 9 10 11 11 12 12 12 13 13 13 13 13 13 13 12 12 12 11 11 11 11 12 12 13 14 15 15 17 17
17 17 16 15 14 14 13 12 12 11 11 12 13 13 13 13 13 13 13 13 13 13 13 12 13 13 13 13 13 13 12 12 12 13 14 14 15 16 17 18 18 19
19 17 17 16 15 15 15 15 15 15 14 15 15 14 13 13 13 12 12 12 12 12 12 13 13 13 13 13 13 13 13 13 14 15 16 16 16 17 17 18 19 19
20 19 18 19 18 18 18 18 17 16 16 15 15 14 13 13 12 12 12 12 12 13 13 13 13 13 13 13 13 13 14 15 15 16 16 17 17 18 17 18 19 20
22 21 22 21 20 20 19 19 18 17 16 15 14 14 13 12 13 13 13 12 12 12 12 12 12 12 13 13 13 14 14 15 15 16 17 17 18 19 19 19 20 21
24 23 22 21 21 20 20 19 18 17 16 14 14 14 13 12 12 12 11 11 11 11 11 12 13 13 14 14 14 15 15 15 16 17 18 19 20 22 22 22 22 24
25 23 23 22 21 21 20 19 18 17 15 14 14 13 11 11 11 10 10 10 11 12 12 13 14 14 14 15 15 15 16 17 18 19 20 21 22 23 24 24 25 26
25 23 22 22 21 21 20 18 17 16 14 13 12 11 10 10 10 10 11 11 12 13 14 15 15 15 15 16 15 16 17 18 20 21 22 22 23 25 25 26 27 28
24 23 22 22 21 20 19 17 15 14 13 12 11 11 11 11 11 11 12 13 13 14 15 16 16 17 17 17 17 17 18 19 20 22 23 24 25 26 27 27 28 29
24 22 22 21 20 18 17 15 14 13 12 11 11 11 12 12 12 12 12 13 14 15 16 17 17 18 18 19 19 19 20 21 22 23 25 26 27 28 28 29 29 30
23 22 21 19 18 16 15 14 13 12 12 12 12 12 12 12 12 12 12 13 15 16 17 18 18 19 19 20 20 21 22 23 24 26 27 28 29 30 30 30 31 30
22 20 19 17 16 15 14 13 12 12 12 12 12 12 12 12 12 13 13 14 15 16 18 18 19 20 21 22 22 23 23 24 26 27 29 30 31 31 32 31 32 32
21 19 17 16 15 13 13 12 12 12 11 11 11 11 12 12 12 13 14 15 16 17 18 19 20 21 22 23 23 24 25 25 27 28 29 31 32 33 34 34 34 35
20 18 17 15 13 13 12 12 11 11 10 10 11 11 11 11 12 13 14 15 16 17 18 19 20 21 22 23 24 24 25 25 27 29 29 30 33 35 36 37 37 37
19 18 16 15 13 12 11 11 10 10 9 10 10 10 11 11 12 13 15 16 16 17 19 20 21 22 23 24 25 25 26 27 28 30 31 32 34 36 37 39 40 40
18 17 16 14 13 11 10 10 9 9 9 9 9 10 11 12 13 13 15 15 17 18 19 21 22 23 24 26 27 27 27 28 30 31 33 34 35 36 37 38 40 42
18 16 15 14 12 11 9 9 8 8 8 8 9 10 11 12 13 14 15 16 17 19 20 22 24 25 26 27 28 29 29 30 32 32 33 35 36 36 37 38 39 40
17 15 14 13 11 10 9 8 8 8 8 8 9 10 11 12 13 15 16 17 19 20 22 23 25 26 28 29 29 31 31 32 33 33 35 36 37 37 36 38 39 38
16 15 13 12 11 10 9 8 7 7 7 8 9 10 11 12 14 15 17 18 20 21 23 24 25 27 28 29 30 31 32 33 33 35 36 38 39 38 37 38 38 38
15 14 13 12 11 10 8 7 6 6 6 7 9 10 11 12 14 16 18 19 20 22 24 25 26 27 29 30 31 31 33 34 35 36 37 39 41 41 38 38 38 37
15 13 12 11 10 9 7 6 5 5 6 7 9 10 11 13 15 17 18 20 21 23 25 26 27 28 29 31 32 32 33 34 35 36 38 39 41 41 40 39 38 37
14 13 12 11 9 7 6 5 5 5 6 7 9 10 12 14 16 17 18 20 22 24 26 28 29 29 30 32 33 33 32 32 32 33 36 38 40 41 41 39 39 38
14 13 11 10 8 6 5 5 4 5 6 8 9 11 13 15 17 18 19 20 22 24 26 28 30 31 31 32 34 33 31 30 30 31 33 36 38 40 41 41 40 40
14 13 11 9 7 5 5 4 4 4 6 8 10 12 14 15 17 18 20 21 23 25 27 28 30 32 32 31 32 32 31 29 29 29 30 34 37 37 38 40 41 41
Wind_Direction
179 181 180 181 181 178 174 170 168 166 160 161 165 166 172 167 51 60 67 67 63 60 56 47 39 31 20 5 353 346 340 340 341 337 338 337 332 328 324 321 319 317
174 173 171 169 163 159 161 163 164 161 153 150 146 127 107 91 81 78 76 72 68 65 62 58 54 49 46 41 33 27 19 12 7 358 353 350 344 341 340 339 339 335
159 158 158 159 158 156 156 155 150 144 132 120 109 98 92 88 82 78 75 71 68 65 62 58 54 51 47 44 39 35 29 24 18 11 6 2 358 356 354 352 350 349
155 156 158 158 155 150 146 141 132 123 115 105 97 91 88 85 81 79 75 71 68 65 61 57 53 49 44 41 37 32 28 23 16 11 9 6 3 359 357 353 349 347
155 155 154 149 142 137 133 126 119 114 109 102 96 93 89 85 81 77 74 71 67 63 58 53 48 44 39 35 31 27 23 19 13 7 5 3 1 358 353 349 344 341
148 145 139 133 129 129 124 117 113 111 107 102 100 96 91 86 79 73 68 63 59 55 51 48 42 37 32 27 24 21 16 12 8 5 1 358 356 355 351 345 339 337
138 134 131 128 127 125 119 115 113 110 107 104 100 95 88 82 73 65 60 54 50 47 44 40 35 29 24 19 17 16 14 10 6 3 0 356 352 351 350 345 338 334
133 131 130 128 126 122 117 115 112 108 105 101 96 89 81 75 66 59 53 46 42 41 38 36 32 27 23 19 16 13 10 8 5 0 357 353 350 348 347 345 339 334
132 130 130 127 123 120 116 113 109 105 102 96 90 83 76 70 62 56 51 44 41 40 38 37 33 29 24 18 13 9 4 2 360 356 353 349 346 345 344 342 338 334
131 130 130 126 122 118 115 111 108 104 100 92 88 82 74 69 62 55 50 43 40 39 36 33 28 24 20 14 9 3 358 356 354 351 348 346 343 342 341 339 336 332
131 130 129 124 120 118 114 112 108 104 99 92 87 81 73 67 60 53 48 41 37 35 31 27 22 18 14 11 7 2 356 352 350 346 344 344 342 341 340 337 334 331
131 130 127 123 121 118 115 112 107 101 96 89 83 76 69 63 56 50 44 39 35 31 27 24 20 16 12 8 5 1 357 352 348 345 343 342 341 340 339 336 333 331
131 129 127 123 120 117 112 108 102 95 91 85 78 73 65 58 52 47 41 37 34 30 27 23 19 16 11 7 4 359 355 351 347 345 342 340 340 338 336 334 330 328
130 128 126 121 117 114 108 103 97 91 87 82 75 68 59 53 48 44 39 35 32 29 26 21 17 13 9 4 1 357 353 349 346 343 340 338 336 334 332 331 329 327
131 127 123 119 115 111 105 99 92 87 84 78 70 63 56 52 46 40 36 32 28 24 22 18 14 10 7 2 359 355 351 348 344 341 338 334 333 332 330 329 329 327
132 128 123 119 114 108 102 96 90 84 80 73 65 60 56 51 45 37 31 25 22 19 17 15 12 8 5 2 358 354 349 345 341 338 336 334 331 330 329 328 328 326
134 130 126 122 115 108 102 95 88 82 76 71 63 57 51 46 39 33 27 22 18 16 13 12 10 6 4 1 357 354 349 343 340 338 336 334 331 328 327 327 326 325
136 132 128 124 118 111 105 95 88 80 74 68 59 52 44 38 33 28 24 19 14 13 10 9 8 5 2 359 356 354 350 344 340 339 336 333 331 327 325 324 323 323
138 134 129 126 120 114 105 95 87 79 72 62 51 43 35 30 29 24 21 16 11 8 7 6 6 3 360 358 354 351 348 344 341 338 335 331 329 326 324 323 322 320
140 137 133 128 120 112 103 94 86 77 67 55 43 36 30 26 24 20 18 14 7 4 3 4 4 2 358 355 352 348 345 343 340 337 333 330 327 325 324 322 321 319
143 140 134 126 118 111 101 94 85 71 59 48 37 30 25 21 19 16 13 10 6 1 360 2 3 359 355 352 349 346 343 341 340 336 332 330 327 326 324 322 321 319
144 140 133 124 117 111 101 93 80 63 49 41 34 26 21 17 15 13 9 5 4 360 356 358 360 356 351 348 347 346 343 341 340 336 333 329 327 326 324 322 320 318
144 138 131 124 120 113 103 91 75 57 40 32 29 21 16 13 11 10 7 2 360 359 355 353 355 354 349 346 346 347 345 343 340 336 332 328 326 325 323 322 320 318
143 138 133 128 123 115 105 91 71 53 36 25 22 17 12 10 6 4 4 360 356 356 355 350 349 352 350 346 346 349 347 343 338 334 330 327 325 324 323 321 319 318
144 139 136 132 126 118 106 90 66 47 32 19 14 13 11 7 3 359 358 358 354 352 352 350 347 348 350 349 348 349 347 342 337 334 329 326 324 322 322 321 319 319
146 142 138 133 130 122 108 90 61 33 23 17 12 10 9 4 359 356 353 353 352 349 349 350 348 346 349 351 349 348 347 342 337 334 330 326 323 321 320 320 319 318